HULIANWANG DIGUI-48 (65051 NORAD) Tracking and Keplerian Element Data

This shows tracking and keplerian element data for the satellite.

Feedback or suggestion? Click here.




ElementValue
Catalog65051
NameHULIANWANG DIGUI-48
Epoch Orbit1953
Epoch Day354.02224846
Epoch Year2025
RAAN188.0504
Inclination50.0013
Eccentricity6.27E-05
Argument of Perigee114.939
Mean Anonmoly245.1548
Mean Motion13.29325463
Decay Rate-9.8E-07
L11 65051U 25162J 25354.02224846 -.00000098 00000+0 56584-4 0 9999
L22 65051 50.0013 188.0504 0000627 114.9390 245.1548 13.29325463 19531



Live tracking and technical data element details for HULIANWANG DIGUI-48 (NORAD 65051). HULIANWANG DIGUI-48 can be tracked NOW for your location showing map with azimuth and elevation plus other details from your city location.







IsCatalogInMostPopularTable: catalog: 65051, numindb: 5
Update: records affected: 1



GetName: 65051 HULIANWANG DIGUI-48

Hit Count: updated at: Tue, 21 Apr 2026 20:32:34 GMT